When you browse on this site, cookies collect data to enhance your experience and personalize the content and advertising you see.
Visit our Privacy Policy to learn more. By continuing to use the site, you agree to this use of cookies and data.
  • In Lithuania
  • List of Countries
  • For 7 days
  • Water Temperature
  • Weather Map
  • Weather Widgets
  • user-avatar
    Login

    Hourly Weather Wakefield

    Today, 21 February, Friday

    Time Temperature Precipitation Wind Pressure Humidity
    00:00 +2°C° 0 mm 6 mps 755 mmHg 74%
    01:00 +2°C° 0 mm 6 mps 755 mmHg 75%
    02:00 +3°C° 0 mm 6 mps 755 mmHg 75%
    03:00 +3°C° 0 mm 6 mps 755 mmHg 75%
    04:00 +3°C° 0.1 mm 6 mps 755 mmHg 77%
    05:00 +3°C° 0.1 mm 7 mps 755 mmHg 78%
    06:00 +3°C° 0.1 mm 7 mps 755 mmHg 79%
    13:00 +7°C° 0.5 mm 9 mps 753 mmHg 79%
    14:00 +7°C° 0.5 mm 9 mps 752 mmHg 80%
    15:00 +7°C° 0.5 mm 9 mps 752 mmHg 81%
    16:00 +7°C° 0.4 mm 9 mps 751 mmHg 80%
    17:00 +7°C° 0.4 mm 9 mps 751 mmHg 79%
    18:00 +8°C° 0.4 mm 9 mps 751 mmHg 78%
    19:00 +8°C° 0.3 mm 9 mps 750 mmHg 79%
    20:00 +8°C° 0.3 mm 10 mps 749 mmHg 79%
    21:00 +8°C° 0.3 mm 10 mps 749 mmHg 79%
    22:00 +8°C° 0.2 mm 10 mps 748 mmHg 79%
    23:00 +9°C° 0.2 mm 10 mps 748 mmHg 78%

    Tomorrow, 22 February, Saturday

    Time Temperature Precipitation Wind Pressure Humidity
    00:00 +9°C° 0.2 mm 10 mps 747 mmHg 78%
    01:00 +9°C° 0.3 mm 10 mps 747 mmHg 78%
    02:00 +9°C° 0.3 mm 11 mps 746 mmHg 78%
    03:00 +9°C° 0.3 mm 11 mps 746 mmHg 78%
    04:00 +8°C° 0.6 mm 11 mps 746 mmHg 75%
    05:00 +7°C° 0.6 mm 11 mps 747 mmHg 72%
    06:00 +7°C° 0.6 mm 11 mps 747 mmHg 69%
    07:00 +6°C° 0.3 mm 11 mps 748 mmHg 68%
    08:00 +4°C° 0.3 mm 11 mps 749 mmHg 67%
    09:00 +3°C° 0.3 mm 10 mps 750 mmHg 66%
    10:00 +3°C° 0.1 mm 11 mps 750 mmHg 66%
    11:00 +3°C° 0.1 mm 11 mps 751 mmHg 66%
    12:00 +3°C° 0.1 mm 11 mps 752 mmHg 66%
    13:00 +3°C° 0.1 mm 11 mps 752 mmHg 67%
    14:00 +3°C° 0.1 mm 11 mps 752 mmHg 69%
    15:00 +2°C° 0.1 mm 11 mps 753 mmHg 70%
    16:00 +2°C° 0.1 mm 10 mps 753 mmHg 71%
    17:00 +2°C° 0.1 mm 9 mps 754 mmHg 72%
    18:00 +1°C° 0.1 mm 8 mps 754 mmHg 72%
    19:00 +1°C° 0.1 mm 8 mps 755 mmHg 75%
    20:00 +1°C° 0.1 mm 8 mps 755 mmHg 78%
    21:00 +1°C° 0.1 mm 9 mps 756 mmHg 80%
    22:00 +1°C° 0.1 mm 9 mps 756 mmHg 81%
    23:00 +1°C° 0.1 mm 9 mps 756 mmHg 81%

    Day after tomorrow, 23 February, Sunday

    Time Temperature Precipitation Wind Pressure Humidity
    00:00 +1°C° 0.1 mm 9 mps 756 mmHg 82%
    01:00 +1°C° 0.4 mm 8 mps 755 mmHg 84%
    02:00 +2°C° 0.4 mm 7 mps 755 mmHg 86%
    03:00 +2°C° 0.4 mm 6 mps 754 mmHg 89%
    04:00 +3°C° 1.1 mm 4 mps 753 mmHg 90%
    05:00 +3°C° 1.1 mm 3 mps 751 mmHg 92%
    06:00 +5°C° 1.1 mm 1 mps 750 mmHg 94%
    07:00 +4°C° 2.1 mm 2 mps 749 mmHg 94%
    08:00 +3°C° 2.1 mm 3 mps 748 mmHg 95%
    09:00 +3°C° 2.1 mm 3 mps 748 mmHg 95%
    10:00 +3°C° 0.1 mm 4 mps 749 mmHg 91%
    11:00 +3°C° 0.1 mm 5 mps 750 mmHg 87%
    12:00 +3°C° 0.1 mm 6 mps 752 mmHg 82%
    13:00 +3°C° 0 mm 6 mps 753 mmHg 80%
    14:00 +3°C° 0 mm 6 mps 754 mmHg 77%
    15:00 +3°C° 0 mm 6 mps 755 mmHg 74%
    16:00 +2°C° 0 mm 6 mps 756 mmHg 72%
    17:00 +2°C° 0 mm 6 mps 757 mmHg 70%
    18:00 +1°C° 0 mm 5 mps 758 mmHg 68%
    19:00 +1°C° 0 mm 4 mps 759 mmHg 70%
    20:00 +1°C° 0 mm 4 mps 759 mmHg 71%
    21:00 +2°C° 0 mm 3 mps 760 mmHg 72%
    22:00 +2°C° 0 mm 2 mps 760 mmHg 74%
    23:00 +2°C° 0 mm 2 mps 760 mmHg 75%

    24 February, Monday

    Time Temperature Precipitation Wind Pressure Humidity
    00:00 +2°C° 0 mm 2 mps 760 mmHg 76%
    01:00 +2°C° 0 mm 2 mps 759 mmHg 76%
    02:00 +3°C° 0 mm 2 mps 758 mmHg 76%
    03:00 +3°C° 0 mm 2 mps 757 mmHg 76%
    04:00 +2°C° 0 mm 3 mps 756 mmHg 78%
    05:00 +3°C° 0 mm 4 mps 754 mmHg 80%
    06:00 +3°C° 0 mm 5 mps 753 mmHg 83%
    07:00 +4°C° 0 mm 6 mps 752 mmHg 83%
    08:00 +5°C° 0 mm 7 mps 751 mmHg 84%
    09:00 +7°C° 0 mm 8 mps 749 mmHg 84%
    10:00 +9°C° 0 mm 8 mps 748 mmHg 80%
    11:00 +8°C° 0 mm 9 mps 748 mmHg 76%
    12:00 +9°C° 0 mm 10 mps 747 mmHg 72%
    13:00 +9°C° 0.6 mm 10 mps 746 mmHg 76%
    14:00 +8°C° 0.6 mm 10 mps 745 mmHg 79%
    15:00 +8°C° 0.6 mm 9 mps 744 mmHg 83%
    16:00 +7°C° 0.2 mm 9 mps 744 mmHg 78%
    17:00 +6°C° 0.2 mm 9 mps 744 mmHg 73%
    18:00 +5°C° 0.2 mm 9 mps 744 mmHg 69%
    19:00 +3°C° 0 mm 9 mps 745 mmHg 68%
    20:00 +3°C° 0 mm 9 mps 745 mmHg 67%
    21:00 +2°C° 0 mm 10 mps 745 mmHg 66%
    22:00 +2°C° 0 mm 10 mps 745 mmHg 65%
    23:00 +2°C° 0 mm 10 mps 745 mmHg 65%

    25 February, Tuesday

    Time Temperature Precipitation Wind Pressure Humidity
    00:00 +2°C° 0 mm 10 mps 745 mmHg 64%
    01:00 +2°C° 0 mm 10 mps 745 mmHg 65%
    02:00 +1°C° 0 mm 10 mps 745 mmHg 65%
    03:00 +1°C° 0 mm 9 mps 745 mmHg 66%
    04:00 +1°C° 0 mm 9 mps 745 mmHg 67%
    05:00 +1°C° 0 mm 9 mps 745 mmHg 68%
    06:00 +1°C° 0 mm 8 mps 745 mmHg 69%
    07:00 +1°C° 0 mm 9 mps 745 mmHg 68%
    08:00 +1°C° 0 mm 9 mps 745 mmHg 68%
    09:00 +1°C° 0 mm 9 mps 745 mmHg 68%
    10:00 +2°C° 0 mm 9 mps 744 mmHg 65%
    11:00 +3°C° 0 mm 9 mps 744 mmHg 62%
    12:00 +5°C° 0 mm 9 mps 744 mmHg 59%
    13:00 +4°C° 0.8 mm 8 mps 743 mmHg 67%
    14:00 +3°C° 0.8 mm 7 mps 742 mmHg 74%
    15:00 +2°C° 0.8 mm 7 mps 741 mmHg 82%
    16:00 +2°C° 1 mm 7 mps 741 mmHg 80%
    17:00 +2°C° 1 mm 7 mps 741 mmHg 79%
    18:00 0°C° 1 mm 7 mps 741 mmHg 77%
    19:00 0°C° 0.1 mm 7 mps 741 mmHg 78%
    20:00 0°C° 0.1 mm 7 mps 742 mmHg 79%
    21:00 0°C° 0.1 mm 8 mps 742 mmHg 80%
    22:00 -1°C° 0 mm 8 mps 742 mmHg 76%
    23:00 -1°C° 0 mm 8 mps 742 mmHg 72%

    26 February, Wednesday

    Time Temperature Precipitation Wind Pressure Humidity
    00:00 -1°C° 0 mm 8 mps 743 mmHg 68%
    01:00 -1°C° 0 mm 7 mps 742 mmHg 70%
    02:00 -1°C° 0 mm 7 mps 742 mmHg 71%
    03:00 -2°C° 0 mm 7 mps 742 mmHg 73%
    04:00 -2°C° 0.3 mm 7 mps 742 mmHg 73%
    05:00 -2°C° 0.3 mm 7 mps 742 mmHg 74%
    06:00 -2°C° 0.3 mm 7 mps 742 mmHg 74%
    07:00 -2°C° 0.1 mm 7 mps 742 mmHg 75%
    08:00 -1°C° 0.1 mm 7 mps 742 mmHg 75%
    09:00 -1°C° 0.1 mm 7 mps 742 mmHg 76%
    10:00 -1°C° 0.3 mm 7 mps 741 mmHg 77%
    11:00 -1°C° 0.3 mm 8 mps 741 mmHg 78%
    12:00 0°C° 0.3 mm 8 mps 741 mmHg 79%
    13:00 0°C° 0.4 mm 8 mps 741 mmHg 75%
    14:00 0°C° 0.4 mm 8 mps 742 mmHg 72%
    15:00 0°C° 0.4 mm 8 mps 742 mmHg 68%
    16:00 0°C° 0 mm 8 mps 743 mmHg 70%
    17:00 0°C° 0 mm 7 mps 743 mmHg 72%
    18:00 -1°C° 0 mm 7 mps 744 mmHg 74%
    19:00 -1°C° 0 mm 6 mps 745 mmHg 74%
    20:00 -1°C° 0 mm 6 mps 745 mmHg 75%
    21:00 -1°C° 0 mm 6 mps 746 mmHg 76%
    22:00 -1°C° 0 mm 6 mps 747 mmHg 77%
    23:00 -1°C° 0 mm 6 mps 747 mmHg 78%
    Show more